Weather History for Scarborough, Trinidad And Tobago

Change the Weather History Date:

Monday, April 22, 2013

  Actual Average Record
Temperature  
Mean Temperature 80 °F -  
Max Temperature 84 °F 85 °F 87 °F (1997)
Min Temperature 75 °F 75 °F 44 °F (2001)
Cooling Degree Days 14    
Growing Degree Days 30 (Base 50)    
Moisture  
Dew Point 72 °F    
Average Humidity 80    
Maximum Humidity 89    
Minimum Humidity 62    
Precipitation  
Precipitation 0.00 in - - ()
Sea Level Pressure  
Sea Level Pressure 29.91 in    
Wind  
Wind Speed 3 mph ()    
Max Wind Speed 16 mph    
Max Gust Speed -    
Visibility 5.8 miles    
Events Rain    
Averages and records for this station are not official NWS values.
T = Trace of Precipitation, MM = Missing Value Source: Averaged Metar Reports

Daily Weather History Graph

Daily Weather History Graph

Search for Another Location

Airport:

Trip Planner

Search our weather history database for the weather conditions in past years. The results will help you decide how hot, cold, wet, or windy it might be!

Date:

Astronomy

Apr. 22, 2013 Rise Set
Actual Time 5:48 AM AST 6:15 PM AST
Civil Twilight 5:26 AM AST 6:36 PM AST
Nautical Twilight 5:01 AM AST 7:02 PM AST
Astronomical Twilight 4:36 AM AST 7:27 PM AST
Moon 3:29 PM AST (4/22) 3:04 AM AST (4/22)
Length of Visible Light 13h 10m
Length of Day
12h 26m
Waxing Gibbous, 87% of the Moon is Illuminated
Apr 22
Waxing Gibbous
Apr 25
Full
May 2
Last Quarter
May 9
New
May 18
First Quarter

Hourly Weather History & Observations

Time (AST) Temp. Heat Index Dew Point Humidity Pressure Visibility Wind Dir Wind Speed Gust Speed Precip Events Conditions
12:00 AM 77.0 °F - 69.8 °F 78% 29.95 in 6.2 mi Calm Calm - N/A   Mostly Cloudy
1:00 AM 77.0 °F - 69.8 °F 78% 29.92 in 6.2 mi Calm Calm - N/A   Mostly Cloudy
2:00 AM 77.0 °F - 73.4 °F 89% 29.89 in 6.2 mi Calm Calm - N/A   Mostly Cloudy
3:00 AM 75.2 °F - 69.8 °F 83% 29.86 in 6.2 mi Calm Calm - N/A   Mostly Cloudy
4:00 AM 77.0 °F - 69.8 °F 78% 29.86 in 6.2 mi Calm Calm - N/A   Mostly Cloudy
5:00 AM 77.0 °F - 69.8 °F 78% 29.86 in 6.2 mi Calm Calm - N/A   Mostly Cloudy
6:00 AM 75.2 °F - 69.8 °F 83% 29.89 in 6.2 mi Calm Calm - N/A   Mostly Cloudy
7:00 AM 77.0 °F - 69.8 °F 78% 29.92 in 6.2 mi Calm Calm - N/A   Mostly Cloudy
8:00 AM 82.4 °F 89.5 °F 75.2 °F 79% 29.95 in 6.2 mi ESE 5.8 mph - N/A   Mostly Cloudy
9:00 AM 82.4 °F 87.2 °F 71.6 °F 70% 29.95 in 6.2 mi East 9.2 mph - N/A   Mostly Cloudy
10:00 AM 84.2 °F 90.9 °F 73.4 °F 70% 29.95 in 6.2 mi NNE 4.6 mph - N/A   Scattered Clouds
11:00 AM 84.2 °F 90.9 °F 73.4 °F 70% 29.95 in 6.2 mi ESE 15.0 mph - N/A   Scattered Clouds
12:00 PM 84.2 °F 88.4 °F 69.8 °F 62% 29.95 in 6.2 mi ESE 11.5 mph - N/A   Scattered Clouds
1:00 PM 84.2 °F 90.9 °F 73.4 °F 70% 29.92 in 6.2 mi SE 10.4 mph - N/A   Scattered Clouds
2:00 PM 82.4 °F 90.9 °F 77.0 °F 84% 29.89 in 3.7 mi SSE 16.1 mph - N/A Rain Light Rain Showers
2:05 PM 78.8 °F - 73.4 °F 83% 29.89 in 0.1 mi SSE 16.1 mph - N/A Rain Heavy Rain Showers
3:00 PM 77.0 °F - 73.4 °F 89% 29.89 in 5.0 mi East 9.2 mph - N/A   Mostly Cloudy
4:00 PM 75.2 °F - 71.6 °F 89% 29.86 in 5.0 mi Calm Calm - N/A Rain Light Rain Showers
5:00 PM 77.0 °F - 71.6 °F 83% 29.86 in 6.2 mi NE 6.9 mph - N/A   Mostly Cloudy
6:00 PM 77.0 °F - 73.4 °F 89% 29.89 in 6.2 mi North 5.8 mph - N/A   Mostly Cloudy
7:00 PM 77.0 °F - 71.6 °F 83% 29.89 in 6.2 mi NE 5.8 mph - N/A   Mostly Cloudy
8:00 PM 77.0 °F - 73.4 °F 89% 29.92 in 6.2 mi Calm Calm - N/A   Mostly Cloudy
9:00 PM 77.0 °F - 69.8 °F 78% 29.95 in 6.2 mi Calm Calm - N/A   Mostly Cloudy
10:00 PM 77.0 °F - 69.8 °F 78% 29.95 in 6.2 mi Calm Calm - N/A   Mostly Cloudy
11:00 PM 77.0 °F - 69.8 °F 78% 29.95 in 6.2 mi Calm Calm - N/A   Mostly Cloudy